Location: Bacharowice
(49.9333°N, 19.5833°E)
Time: 01:40:58
(UTC+00:00)

Cosmos 1726 - Pass Details

Date: 11 May 2021
Orbit: 478 x 498 km, 82.5° (Epoch: 24 June)

Event Time Altitude Azimuth Distance (km) Brightness Sun altitude
Rises 23:36:47 0° 354° (N) 2,594 7.0 -20.7°
Reaches altitude 10° 23:38:58 10° 360° (N) 1,703 5.9 -20.6°
Maximum altitude 23:42:35 49° 76° (ENE) 649 2.8 -20.4°
Enters shadow 23:43:31 38° 121° (ESE) 762 2.9 -20.4°
